Flag for Lebanon Weather past 2 weeks in Sidon, Lebanon

Now
81 °F

Passing clouds.


Feels Like: 85 °F
Forecast: 77 / 90 °F
Wind: 3 mph from Northwest

Location: Beirut Airport

Current Time: Jul 30, 2015 at 12:03:52 AM

Latest Report: Jul 29, 2015 at 11:00 PM


Visibility: 5 mi

Pressure: 29.77 "Hg

Humidity: 79%

Dew point: 73 °F

Location of SidonLocation

Historic Weather in Sidon — Graph

°F

Sidon temperature yesterday

Maximum temperature yesterday: 86 °F (at 1:00 PM)
Minimum temperature yesterday: 79 °F (at 6:00 AM)
Average temperature yesterday: 83 °F

Past Weeks' High & Low Weather Summary

 TemperatureHumidityPressure
High99 °F (Jul 24, 9:00 AM)84% (Jul 15, 12:00 AM)29.86 "Hg (Jul 15, 12:00 AM)
Low75 °F (Jul 22, 6:00 AM)22% (Jul 24, 7:00 AM)29.68 "Hg (Jul 20, 5:00 AM)
Average82 °F69%29.77 "Hg
* Reported Jul 14 11:00 PM — Jul 29 11:00 PM, Sidon, Weather by CustomWeather, © 2015

Note: Actual official high and low records may vary slightly from our data, if they occured in-between our weather recording intervals... More about our weather records

Advertising

Sidon weather history for previous 24 hours

 ConditionsComfort  
Time TempWeatherWind HumidityBarometerVisibility
11:00 PM
Wed, Jul 29
81 °FPassing clouds.3 mph79%29.77 "Hg5 mi
10:00 PM81 °FClear.2 mph79%29.74 "HgN/A
9:00 PM82 °FPassing clouds.3 mph70%29.74 "Hg5 mi
8:00 PM82 °FPassing clouds.3 mph70%29.74 "Hg5 mi
7:00 PM84 °FPassing clouds.6 mph66%29.74 "Hg5 mi
6:00 PM84 °FPassing clouds.6 mph66%29.74 "Hg5 mi
5:00 PM86 °FPassing clouds.7 mph62%29.74 "Hg5 mi
4:00 PM86 °FPassing clouds.8 mph62%29.74 "Hg5 mi
3:00 PM86 °FPassing clouds.8 mph62%29.74 "Hg5 mi
2:00 PM86 °FPassing clouds.9 mph62%29.77 "Hg5 mi
1:00 PM86 °FPassing clouds.8 mph62%29.77 "Hg5 mi
12:00 PM84 °FFog.8 mph66%29.77 "Hg4 mi
11:00 AM84 °FFog.8 mph66%29.77 "Hg3 mi
10:00 AM84 °FPassing clouds.7 mph66%29.77 "Hg4 mi
9:00 AM82 °FScattered clouds.7 mph70%29.77 "Hg4 mi
8:00 AM82 °FScattered clouds.5 mph70%29.74 "Hg4 mi
7:00 AM81 °FFog.3 mph74%29.74 "Hg3 mi
6:00 AM79 °FPassing clouds.3 mph74%29.74 "Hg4 mi
5:00 AM81 °FPassing clouds.3 mph70%29.71 "Hg4 mi
4:00 AM81 °FPassing clouds.1 mph79%29.74 "Hg5 mi
3:00 AM81 °FPassing clouds.2 mph79%29.74 "Hg5 mi
2:00 AM81 °FPassing clouds.3 mph79%29.74 "Hg5 mi
1:00 AM81 °FPassing clouds.3 mph79%29.74 "Hg5 mi
12:00 AM81 °FPassing clouds.2 mph79%29.77 "Hg5 mi
Weather by CustomWeather, © 2015

See weather overviewHow to use our weather pages